STARLINK-36192

Last updated on Fri Dec 19 2025 00:02:09 GMT+0000 (Coordinated Universal Time)

1 67024U 25293X 25351.83335648 -.01182777 44214-3 -24804-2 0 9999 2 67024 69.9928 308.9906 0004129 266.5369 149.9086 15.98771083 2381
UTC large
Height (km)
Speed (km/s)
/
Latitude / Longitude
Inclination (degrees)
Orbital Period (minutes)
Azimuth
Elevation
Range (km)
Doppler Factor

Next 0 passes for location: London (51.5072 / 0.1276)

Sorry there are no passes over London.